#timestamp,LO_Frequency,Hit,StdDev 
1682798415.8,286047000.2,N
1682798435.6,286047003.2,N
1682798455.4,286047007.1,Y
1682798475.3,286047010.5,P
1682798495.1,286047006.3,N
1682798515.9,286047008.2,N
1682798535.7,286047006.7,N
1682798555.5,286047010.9,Y
1682798575.4,286047005.4,P
1682798595.2,286047005.9,P
1682798615.0,286047000.0,N
1682798616.0,286047000.0,N
1682798635.8,286046998.8,N
1682798655.6,286046999.2,N
1682798675.5,286046996.1,N
1682798695.3,286046992.0,N
1682798715.1,286046992.7,N
1682798735.9,286046991.6,N
1682798755.7,286046989.3,N
1682798775.6,286046988.0,N
1682798795.4,286046983.0,N
1682798815.2,286046979.3,Y
1682798835.1,286046984.7,P
1682798836.0,286046984.7,N
1682798855.8,286046984.8,N
1682798875.6,286046982.4,Y
1682798895.5,286046995.9,P
1682798915.3,286046997.3,N
1682798935.2,286047000.1,N
1682798955.9,286047000.8,N
1682798975.7,286047004.7,N
1682798995.6,286047008.3,N
1682799015.4,286047011.8,N
1682799035.2,286047014.7,N
1682799055.1,286047020.4,N
1682799056.0,286047020.4,N
1682799075.8,286047021.8,N
1682799095.7,286047019.6,N
1682799115.5,286047021.3,N
1682799135.3,286047026.4,N
1682799155.2,286047023.9,N
1682799175.0,286047023.0,N
1682799175.9,286047023.0,N
1682799195.7,286047022.3,N
1682799245.6,286047017.7,E
1682799255.5,286047009.4,N
1682799275.4,286046994.9,P
1682799295.2,286046997.1,N
1682799315.0,286046996.9,N
1682799315.9,286046996.9,N
1682799335.8,286046995.0,N
1682799355.6,286046995.4,N
1682799375.5,286046995.0,N
1682799395.3,286046994.0,N
1682799415.1,286046993.4,N
1682799435.9,286046995.2,N
1682799455.7,286046994.1,N
1682799475.5,286046993.5,N
1682799495.4,286046992.6,N
1682799515.2,286046995.8,N
1682799535.1,286046992.2,N
1682799536.0,286046992.2,N
1682799555.8,286046994.4,N
1682799575.6,286046989.0,N
1682799595.5,286046991.1,N
1682799615.3,286046985.3,Y
1682799635.1,286046992.7,P
1682799655.9,286046988.9,P
1682799675.7,286046989.6,P
1682799695.6,286046987.2,Y
1682799715.4,286046994.5,P
1682799735.2,286046992.7,P
1682799785.1,286046990.7,E
1682799795.0,286046993.7,N
1682799795.9,286046993.7,P
1682799815.8,286046998.3,P
1682799835.6,286046998.8,N
1682799855.4,286046998.6,N
1682799875.3,286046999.1,N
1682799895.1,286046997.4,N
1682799915.9,286046999.4,N
1682799935.7,286046999.7,N
1682799955.5,286047000.6,N
1682799975.4,286047002.5,N
1682799995.2,286047000.2,N
1682800015.0,286047001.0,N
1682800015.9,286047001.0,N
1682800035.8,286046998.4,N
1682800055.6,286046995.0,N
1682800075.4,286046994.0,N
1682800095.3,286046988.5,Y
1682800115.1,286046992.8,P
1682800135.9,286046996.6,N
1682800155.7,286046996.9,N
1682800175.5,286046997.3,N
1682800195.4,286046996.2,N
1682800215.2,286046994.9,N
1682800235.1,286047001.2,N
1682800236.0,286047001.2,N
1682800255.8,286047002.7,N
1682800275.6,286047000.6,N
1682800295.5,286046999.7,N
1682800315.3,286047001.7,N
1682800335.1,286047003.2,N
1682800355.9,286047007.4,N
1682800375.7,286047004.9,N
1682800395.6,286047009.1,N
1682800415.4,286047008.7,N
1682800435.2,286047006.5,N
1682800455.1,286047002.9,N
1682800456.0,286047002.9,N
1682800475.8,286047003.3,N
1682800495.6,286047005.2,N
1682800515.5,286047003.1,N
1682800535.3,286047001.7,N
1682800555.2,286047005.6,N
1682800575.9,286047006.7,N
1682800595.7,286047005.1,N
1682800615.6,286047010.5,N
1682800635.4,286047008.6,N
1682800655.3,286047007.8,N
1682800675.1,286047008.8,N
1682800676.0,286047008.8,N
1682800695.8,286047005.9,N
1682800715.7,286047007.5,N
1682800735.5,286047007.3,N
1682800755.3,286047003.0,N
1682800775.2,286047001.9,N
1682800795.0,286047002.2,N
1682800795.9,286047002.2,N
1682800815.8,286047003.2,N
1682800835.6,286047006.4,N
1682800855.4,286047010.1,Y
1682800875.3,286047004.8,P
1682800895.1,286047006.0,P
1682800915.8,286047001.3,N
1682800935.7,286047002.2,N
1682800955.5,286047001.6,N
1682800975.4,286047002.1,N
1682800995.2,286047001.9,N
1682801015.0,286047003.5,N
1682801015.9,286047003.5,N
1682801035.8,286047005.9,Y
1682801055.6,286047003.1,P
1682801075.4,286047005.7,P
1682801095.3,286047005.7,P
1682801115.1,286047003.0,N
1682801135.9,286047007.6,Y
1682801155.7,286047001.9,P
1682801175.5,286047003.7,P
1682801195.4,286047006.0,P
1682801215.2,286047003.4,N
1682801235.0,286047003.7,N
1682801236.0,286047003.7,Y
1682801255.8,286046999.0,P
1682801275.6,286046999.8,N
1682801295.5,286047001.8,N
1682801315.3,286047002.0,N
1682801335.2,286047003.8,N
1682801355.9,286047002.6,N
1682801375.7,286046999.7,N
1682801395.6,286047001.6,N
1682801415.4,286047003.6,N
1682801435.3,286047002.9,N
1682801455.1,286047005.7,Y
1682801456.0,286047005.7,P
1682801475.8,286047005.0,N
1682801495.7,286047004.7,N
1682801515.5,286047007.5,Y
1682801535.4,286047001.3,P
1682801555.2,286047003.3,N
1682801575.0,286047007.3,P
1682801575.9,286047007.3,Y
1682801595.8,286047002.8,P
1682801615.6,286047002.0,P
1682801635.5,286047004.1,P
1682801655.3,286047003.9,Y
1682801675.1,286047002.0,P
1682801695.9,286047002.4,P
1682801715.7,286047000.6,N
1682801735.1,286047000.0,N
1682801755.9,286047000.7,N
1682801775.7,286046998.4,N
1682801795.6,286046997.4,N
1682801815.4,286046999.6,N
1682801835.2,286046998.4,N
1682801855.1,286046996.9,N
1682801856.0,286046996.9,N
1682801875.8,286046994.9,N
1682801895.7,286046991.7,Y
1682801915.5,286046992.3,P
1682801935.3,286046992.9,N
1682801955.2,286046992.8,N
1682801975.9,286046992.0,N
1682801995.7,286046992.6,N
